time, Switch, Flow(0), Analog(2)
yyyy/mm/dd HH:MM:SS.fff, True=FILTERED|False=TOTAL, L/min, V
2023/06/22 14:00:03.606, True, 3.648, 0.132372
2023/06/22 14:00:04.110, True, 2.653, 0.130312
2023/06/22 14:00:04.606, True, 1.685, 0.132219
2023/06/22 14:00:05.109, True, 1.991, 0.133516
2023/06/22 14:00:05.614, True, 1.657, 0.131304
2023/06/22 14:00:06.110, True, 1.685, 0.132219
2023/06/22 14:00:06.614, True, 1.658, 0.134508
2023/06/22 14:00:07.118, True, 1.658, 0.131685
2023/06/22 14:00:07.614, True, 1.348, 0.131228
2023/06/22 14:00:08.118, True, 1.658, 0.134127
2023/06/22 14:00:08.622, True, 1.326, 0.132982
2023/06/22 14:00:09.118, True, 1.685, 0.132906
2023/06/22 14:00:09.622, True, 1.658, 0.133745
2023/06/22 14:00:10.126, True, 1.659, 0.131914
2023/06/22 14:00:10.622, True, 1.684, 0.135119
2023/06/22 14:00:11.126, True, 1.658, 0.133745
2023/06/22 14:00:11.629, True, 1.658, 0.132601
2023/06/22 14:00:12.125, True, 1.348, 0.131533
2023/06/22 14:00:12.630, True, 1.658, 0.132448
2023/06/22 14:00:13.133, True, 1.326, 0.130846
2023/06/22 14:00:13.630, True, 1.685, 0.133135
2023/06/22 14:00:14.134, True, 1.658, 0.131533
2023/06/22 14:00:14.637, True, 1.326, 0.134127
2023/06/22 14:00:15.133, True, 1.685, 0.132906
2023/06/22 14:00:15.638, True, 1.661, 0.132830
2023/06/22 14:00:16.142, True, 1.655, 0.130846
2023/06/22 14:00:16.638, True, 1.685, 0.130159
2023/06/22 14:00:17.141, True, 1.658, 0.130617
2023/06/22 14:00:17.646, True, 1.658, 0.133440
2023/06/22 14:00:18.142, True, 1.685, 0.133440
2023/06/22 14:00:18.645, True, 1.661, 0.131914
2023/06/22 14:00:19.150, True, 1.655, 0.132982
2023/06/22 14:00:19.646, True, 1.348, 0.131609
2023/06/22 14:00:20.150, True, 1.658, 0.131304
2023/06/22 14:00:20.653, True, 1.659, 0.134279
2023/06/22 14:00:21.150, True, 1.685, 0.131685
2023/06/22 14:00:21.653, True, 1.660, 0.131685
2023/06/22 14:00:22.157, True, 1.656, 0.134737
2023/06/22 14:00:22.654, True, 1.685, 0.133364
2023/06/22 14:00:23.158, True, 1.658, 0.131075
2023/06/22 14:00:23.662, True, 1.326, 0.131533
2023/06/22 14:00:24.158, True, 1.686, 0.133211
2023/06/22 14:00:24.662, True, 1.328, 0.133745
2023/06/22 14:00:25.166, True, 1.657, 0.131914
2023/06/22 14:00:25.662, True, 1.684, 0.130236
2023/06/22 14:00:26.166, True, 1.325, 0.132753
2023/06/22 14:00:26.670, True, 1.661, 0.133364
2023/06/22 14:00:27.166, True, 1.684, 0.131456
2023/06/22 14:00:27.670, True, 1.656, 0.133516
2023/06/22 14:00:28.166, True, 1.684, 0.132219
2023/06/22 14:00:28.669, True, 1.660, 0.132906
2023/06/22 14:00:29.173, True, 1.656, 0.132143
2023/06/22 14:00:29.678, True, 1.658, 0.131304
2023/06/22 14:00:30.174, True, 1.348, 0.131304
2023/06/22 14:00:30.677, True, 1.657, 0.132143
2023/06/22 14:00:31.182, True, 1.658, 0.131838
2023/06/22 14:00:31.678, True, 1.685, 0.133440
2023/06/22 14:00:32.182, True, 1.658, 0.135271
2023/06/22 14:00:32.686, True, 1.658, 0.134127
2023/06/22 14:00:33.190, True, 1.658, 0.131685
2023/06/22 14:00:33.686, True, 1.684, 0.133669
2023/06/22 14:00:34.190, True, 1.326, 0.133211
2023/06/22 14:00:34.694, True, 1.658, 0.131838
2023/06/22 14:00:35.190, True, 1.686, 0.132219
2023/06/22 14:00:35.694, True, 1.657, 0.131685
2023/06/22 14:00:36.198, True, 1.658, 0.133974
2023/06/22 14:00:36.694, True, 1.685, 0.134279
2023/06/22 14:00:37.198, True, 1.658, 0.133745
2023/06/22 14:00:37.694, True, 1.685, 0.131685
2023/06/22 14:00:38.198, True, 1.658, 0.133593
2023/06/22 14:00:38.702, True, 1.659, 0.133364
2023/06/22 14:00:39.198, True, 1.347, 0.131533
2023/06/22 14:00:39.702, True, 1.658, 0.131228
2023/06/22 14:00:40.206, True, 1.658, 0.133135
2023/06/22 14:00:40.702, True, 1.348, 0.135576
2023/06/22 14:00:41.206, True, 1.658, 0.134890
2023/06/22 14:00:41.702, True, 1.684, 0.133211
2023/06/22 14:00:42.206, True, 1.658, 0.134585
2023/06/22 14:00:42.710, True, 1.659, 0.134661
2023/06/22 14:00:43.206, True, 1.684, 0.134279
2023/06/22 14:00:43.710, True, 1.328, 0.134585
2023/06/22 14:00:44.214, True, 1.658, 0.135805
2023/06/22 14:00:44.710, True, 1.683, 0.136339
2023/06/22 14:00:45.214, True, 1.658, 0.135729
2023/06/22 14:00:45.718, True, 1.658, 0.135271
2023/06/22 14:00:46.214, True, 1.348, 0.136797
2023/06/22 14:00:46.718, True, 1.658, 0.137331
2023/06/22 14:00:47.221, True, 1.658, 0.137484
2023/06/22 14:00:47.718, True, 1.685, 0.137789
2023/06/22 14:00:48.222, True, 1.326, 0.135576
2023/06/22 14:00:48.726, True, 1.658, 0.136645
2023/06/22 14:00:49.222, True, 1.348, 0.140383
2023/06/22 14:00:49.726, True, 1.661, 0.140459
2023/06/22 14:00:50.230, True, 1.655, 0.138018
2023/06/22 14:00:50.726, True, 1.348, 0.136492
2023/06/22 14:00:51.230, True, 1.657, 0.139696
2023/06/22 14:00:51.733, True, 1.326, 0.142138
2023/06/22 14:00:52.230, True, 1.685, 0.139010
2023/06/22 14:00:52.734, True, 1.658, 0.140993
2023/06/22 14:00:53.238, True, 1.658, 0.140078
2023/06/22 14:00:53.734, True, 1.684, 0.141985
2023/06/22 14:00:54.238, True, 1.658, 0.140536
2023/06/22 14:00:54.734, True, 1.348, 0.144350
2023/06/22 14:00:55.238, True, 1.658, 0.143587
2023/06/22 14:00:55.742, True, 1.326, 0.142672
2023/06/22 14:00:56.238, True, 1.685, 0.141146
2023/06/22 14:00:56.742, True, 1.660, 0.142672
2023/06/22 14:00:57.246, True, 1.656, 0.142367
2023/06/22 14:00:57.742, True, 1.684, 0.142290
2023/06/22 14:00:58.246, True, 1.659, 0.142901
2023/06/22 14:00:58.749, True, 1.660, 0.143435
2023/06/22 14:00:59.246, True, 1.346, 0.145266
2023/06/22 14:00:59.750, True, 1.658, 0.144656
2023/06/22 14:01:00.254, True, 1.658, 0.143587
2023/06/22 14:01:00.750, True, 1.348, 0.143130
2023/06/22 14:01:01.254, True, 1.658, 0.142443
2023/06/22 14:01:01.758, True, 1.658, 0.142138
2023/06/22 14:01:02.254, True, 1.685, 0.144274
2023/06/22 14:01:02.758, True, 1.660, 0.142519
2023/06/22 14:01:03.254, True, 1.683, 0.141527
2023/06/22 14:01:03.758, True, 1.658, 0.143130
2023/06/22 14:01:04.262, True, 1.659, 0.143053
2023/06/22 14:01:04.758, True, 1.684, 0.143816
2023/06/22 14:01:05.262, True, 1.658, 0.144808
2023/06/22 14:01:05.766, True, 1.658, 0.144884
2023/06/22 14:01:06.262, True, 1.348, 0.144503
2023/06/22 14:01:06.766, True, 1.658, 0.145190
2023/06/22 14:01:07.270, True, 1.658, 0.143587
2023/06/22 14:01:07.765, True, 1.685, 0.144732
2023/06/22 14:01:08.270, True, 1.326, 0.146715
2023/06/22 14:01:08.774, True, 1.658, 0.142748
2023/06/22 14:01:09.270, True, 1.684, 0.143969
2023/06/22 14:01:09.774, True, 1.658, 0.145571
2023/06/22 14:01:10.278, True, 1.658, 0.144732
2023/06/22 14:01:10.774, True, 1.348, 0.143282
2023/06/22 14:01:11.277, True, 1.658, 0.145647
2023/06/22 14:01:11.782, True, 1.326, 0.145037
2023/06/22 14:01:12.278, True, 1.685, 0.145113
2023/06/22 14:01:12.782, True, 1.658, 0.144121
2023/06/22 14:01:13.286, True, 1.658, 0.145647
2023/06/22 14:01:13.782, True, 1.347, 0.144884
2023/06/22 14:01:14.286, True, 1.658, 0.143816
2023/06/22 14:01:14.790, True, 1.658, 0.144579
2023/06/22 14:01:15.286, True, 1.685, 0.143359
2023/06/22 14:01:15.790, True, 1.658, 0.146410
2023/06/22 14:01:16.294, True, 1.657, 0.143587
2023/06/22 14:01:16.790, True, 1.348, 0.145571
2023/06/22 14:01:17.294, True, 1.658, 0.145190
2023/06/22 14:01:17.790, True, 1.685, 0.146639
2023/06/22 14:01:18.294, True, 1.326, 0.145647
2023/06/22 14:01:18.798, True, 1.658, 0.143969
2023/06/22 14:01:19.293, True, 1.688, 0.145190
2023/06/22 14:01:19.798, True, 1.657, 0.146105
2023/06/22 14:01:20.302, True, 1.325, 0.145190
2023/06/22 14:01:20.798, True, 1.686, 0.143969
2023/06/22 14:01:21.301, True, 1.988, 0.145953
2023/06/22 14:01:21.806, True, 1.326, 0.146029
2023/06/22 14:01:22.302, True, 1.685, 0.146029
2023/06/22 14:01:22.806, True, 1.658, 0.147021
2023/06/22 14:01:23.310, True, 1.658, 0.146868
2023/06/22 14:01:23.806, True, 1.348, 0.143511
2023/06/22 14:01:24.310, True, 1.658, 0.145113
2023/06/22 14:01:24.814, True, 1.326, 0.144732
2023/06/22 14:01:25.310, True, 1.684, 0.144198
2023/06/22 14:01:25.814, True, 1.658, 0.146792
2023/06/22 14:01:26.318, True, 1.658, 0.144732
2023/06/22 14:01:26.814, True, 1.687, 0.145495
2023/06/22 14:01:27.318, True, 1.655, 0.145953
2023/06/22 14:01:27.822, True, 1.659, 0.146410
2023/06/22 14:01:28.318, True, 1.347, 0.144045
2023/06/22 14:01:28.822, True, 1.658, 0.146944
2023/06/22 14:01:29.326, True, 1.658, 0.143664
2023/06/22 14:01:29.821, True, 1.348, 0.146715
2023/06/22 14:01:30.326, True, 1.659, 0.149004
2023/06/22 14:01:30.830, True, 1.657, 0.145571
2023/06/22 14:01:31.326, True, 1.685, 0.144350
2023/06/22 14:01:31.830, True, 1.660, 0.145495
2023/06/22 14:01:32.334, True, 1.655, 0.144350
2023/06/22 14:01:32.830, True, 1.684, 0.143511
2023/06/22 14:01:33.334, True, 1.659, 0.148470
2023/06/22 14:01:33.838, True, 1.658, 0.146181
2023/06/22 14:01:34.333, True, 1.347, 0.146487
2023/06/22 14:01:34.838, True, 1.658, 0.145876
2023/06/22 14:01:35.342, True, 1.658, 0.144274
2023/06/22 14:01:35.838, True, 1.686, 0.144274
2023/06/22 14:01:36.341, True, 1.659, 0.143587
2023/06/22 14:01:36.846, True, 1.325, 0.146487
2023/06/22 14:01:37.342, True, 1.684, 0.146105
2023/06/22 14:01:37.846, True, 1.658, 0.143206
2023/06/22 14:01:38.350, True, 1.328, 0.145266
2023/06/22 14:01:38.846, True, 1.683, 0.143969
2023/06/22 14:01:39.350, True, 1.658, 0.144427
2023/06/22 14:01:39.854, True, 1.658, 0.143893
2023/06/22 14:01:40.350, True, 1.686, 0.144121
2023/06/22 14:01:40.854, True, 1.657, 0.144579
2023/06/22 14:01:41.358, True, 1.658, 0.145037
2023/06/22 14:01:41.854, True, 1.348, 0.142367
2023/06/22 14:01:42.358, True, 1.326, 0.142824
2023/06/22 14:01:42.861, True, 1.659, 0.143435
2023/06/22 14:01:43.357, True, 1.684, 0.142367
2023/06/22 14:01:43.862, True, 1.326, 0.143359
2023/06/22 14:01:44.366, True, 1.661, 0.144808
2023/06/22 14:01:44.861, True, 1.686, 0.143664
2023/06/22 14:01:45.365, True, 1.655, 0.144503
2023/06/22 14:01:45.870, True, 1.658, 0.142443
2023/06/22 14:01:46.366, True, 1.685, 0.144274
2023/06/22 14:01:46.869, True, 1.328, 0.142901
2023/06/22 14:01:47.374, True, 1.656, 0.144884
2023/06/22 14:01:47.870, True, 1.348, 0.144045
2023/06/22 14:01:48.373, True, 1.658, 0.143816
2023/06/22 14:01:48.877, True, 1.661, 0.143130
2023/06/22 14:01:49.373, True, 1.683, 0.145724
2023/06/22 14:01:49.877, True, 1.326, 0.145113
2023/06/22 14:01:50.381, True, 1.658, 0.144350
2023/06/22 14:01:50.878, True, 1.684, 0.143053
2023/06/22 14:01:51.381, True, 1.658, 0.144121
2023/06/22 14:01:51.885, True, 1.658, 0.143206
2023/06/22 14:01:52.381, True, 1.348, 0.143587
2023/06/22 14:01:52.886, True, 1.658, 0.143359
2023/06/22 14:01:53.389, True, 1.658, 0.143740
2023/06/22 14:01:53.885, True, 1.687, 0.146029
2023/06/22 14:01:54.390, True, 1.656, 0.141527
2023/06/22 14:01:54.893, True, 1.328, 0.145342
2023/06/22 14:01:55.389, True, 1.682, 0.140993
2023/06/22 14:01:55.893, True, 1.658, 0.144961
2023/06/22 14:01:56.398, True, 1.661, 0.143816
2023/06/22 14:01:56.893, True, 1.346, 0.144884
2023/06/22 14:01:57.397, True, 1.657, 0.144808
2023/06/22 14:01:57.902, True, 1.661, 0.143664
2023/06/22 14:01:58.398, True, 1.685, 0.142367
2023/06/22 14:01:58.902, True, 1.324, 0.143893
2023/06/22 14:01:59.406, True, 1.328, 0.141146
2023/06/22 14:01:59.901, True, 1.687, 0.141604
2023/06/22 14:02:00.406, True, 1.658, 0.143511
2023/06/22 14:02:00.910, True, 1.324, 0.143969
2023/06/22 14:02:01.405, True, 1.686, 0.143359
2023/06/22 14:02:01.910, True, 1.657, 0.142061
2023/06/22 14:02:02.413, True, 1.658, 0.141527
2023/06/22 14:02:02.910, True, 1.685, 0.142061
2023/06/22 14:02:03.414, True, 1.661, 0.144579
2023/06/22 14:02:03.918, True, 1.325, 0.144045
2023/06/22 14:02:04.414, True, 1.347, 0.142138
2023/06/22 14:02:04.917, True, 1.658, 0.145495
2023/06/22 14:02:05.421, True, 1.658, 0.144274
2023/06/22 14:02:05.918, True, 1.349, 0.142443
2023/06/22 14:02:06.422, True, 1.656, 0.142443
2023/06/22 14:02:06.926, True, 1.657, 0.141604
2023/06/22 14:02:07.421, True, 1.687, 0.141604
2023/06/22 14:02:07.926, True, 1.656, 0.142748
2023/06/22 14:02:08.429, True, 1.658, 0.141833
2023/06/22 14:02:08.925, True, 1.348, 0.144198
2023/06/22 14:02:09.429, True, 1.658, 0.144579
2023/06/22 14:02:09.934, True, 1.658, 0.144808
2023/06/22 14:02:10.429, True, 1.685, 0.142748
2023/06/22 14:02:10.934, True, 1.326, 0.144274
2023/06/22 14:02:11.437, True, 1.658, 0.144656
2023/06/22 14:02:11.933, True, 1.685, 0.142214
2023/06/22 14:02:12.438, True, 1.658, 0.141909
2023/06/22 14:02:12.941, True, 1.658, 0.143206
2023/06/22 14:02:13.437, True, 1.348, 0.144656
2023/06/22 14:02:13.941, True, 1.326, 0.140764
2023/06/22 14:02:14.437, True, 1.685, 0.144808
2023/06/22 14:02:14.942, True, 1.658, 0.141909
2023/06/22 14:02:15.445, True, 1.658, 0.142138
2023/06/22 14:02:15.941, True, 1.348, 0.144121
2023/06/22 14:02:16.446, True, 1.658, 0.141222
2023/06/22 14:02:16.950, True, 1.658, 0.140536
2023/06/22 14:02:17.445, True, 1.685, 0.143435
2023/06/22 14:02:17.949, True, 1.327, 0.143740
2023/06/22 14:02:18.453, True, 1.658, 0.140688
2023/06/22 14:02:18.949, True, 1.685, 0.141527
2023/06/22 14:02:19.453, True, 1.326, 0.143359
2023/06/22 14:02:19.957, True, 1.658, 0.141451
2023/06/22 14:02:20.453, True, 1.685, 0.141756
2023/06/22 14:02:20.958, True, 1.658, 0.141833
2023/06/22 14:02:21.461, True, 1.658, 0.142901
2023/06/22 14:02:21.957, True, 1.348, 0.142596
2023/06/22 14:02:22.461, True, 1.658, 0.142290
2023/06/22 14:02:22.965, True, 1.658, 0.142519
2023/06/22 14:02:23.461, True, 1.684, 0.141680
2023/06/22 14:02:23.965, True, 1.658, 0.140536
2023/06/22 14:02:24.461, True, 1.685, 0.143206
2023/06/22 14:02:24.965, True, 1.326, 0.142367
2023/06/22 14:02:25.469, True, 1.658, 0.142519
2023/06/22 14:02:25.965, True, 1.685, 0.139620
2023/06/22 14:02:26.469, True, 1.327, 0.142443
2023/06/22 14:02:26.973, True, 1.658, 0.142824
2023/06/22 14:02:27.469, True, 1.685, 0.140383
2023/06/22 14:02:27.973, True, 1.658, 0.141070
2023/06/22 14:02:28.477, True, 1.658, 0.141146
2023/06/22 14:02:28.973, True, 1.685, 0.144121
2023/06/22 14:02:29.477, True, 1.326, 0.140230
2023/06/22 14:02:29.981, True, 1.658, 0.140307
2023/06/22 14:02:30.477, True, 1.685, 0.142824
2023/06/22 14:02:30.981, True, 1.658, 0.143053
2023/06/22 14:02:31.485, True, 1.658, 0.141375
2023/06/22 14:02:31.981, True, 1.348, 0.141451
2023/06/22 14:02:32.485, True, 1.658, 0.143740
2023/06/22 14:02:32.989, True, 1.658, 0.142443
2023/06/22 14:02:33.485, True, 1.348, 0.141375
2023/06/22 14:02:33.989, True, 1.658, 0.144808
2023/06/22 14:02:34.493, True, 1.658, 0.142061
2023/06/22 14:02:34.989, True, 1.684, 0.141146
2023/06/22 14:02:35.493, True, 1.659, 0.143435
2023/06/22 14:02:35.989, True, 1.685, 0.141604
2023/06/22 14:02:36.493, True, 1.657, 0.140078
2023/06/22 14:02:36.997, True, 1.327, 0.139544
2023/06/22 14:02:37.501, True, 1.657, 0.140917
2023/06/22 14:02:37.997, True, 1.348, 0.140536
2023/06/22 14:02:38.501, True, 1.659, 0.141909
2023/06/22 14:02:39.005, True, 1.326, 0.145037
2023/06/22 14:02:39.501, True, 1.685, 0.141299
2023/06/22 14:02:40.005, True, 1.659, 0.142977
2023/06/22 14:02:40.509, True, 1.657, 0.140764
2023/06/22 14:02:41.005, True, 1.348, 0.140536
2023/06/22 14:02:41.509, True, 1.658, 0.140917
2023/06/22 14:02:42.013, True, 1.658, 0.141985
2023/06/22 14:02:42.509, True, 1.685, 0.138933
2023/06/22 14:02:43.013, True, 1.658, 0.141375
2023/06/22 14:02:43.517, True, 1.658, 0.140993
2023/06/22 14:02:44.013, True, 1.348, 0.140688
2023/06/22 14:02:44.517, True, 1.658, 0.141909
2023/06/22 14:02:45.021, True, 1.658, 0.140841
2023/06/22 14:02:45.517, True, 1.685, 0.142290
2023/06/22 14:02:46.021, True, 1.326, 0.141070
2023/06/22 14:02:46.525, True, 1.658, 0.140993
2023/06/22 14:02:47.021, True, 1.348, 0.141375
2023/06/22 14:02:47.525, True, 1.658, 0.140002
2023/06/22 14:02:48.029, True, 1.658, 0.141451
2023/06/22 14:02:48.525, True, 1.685, 0.139773
2023/06/22 14:02:49.029, True, 1.658, 0.139925
2023/06/22 14:02:49.533, True, 1.326, 0.141299
2023/06/22 14:02:50.029, True, 1.685, 0.139773
2023/06/22 14:02:50.533, True, 1.658, 0.139849
2023/06/22 14:02:51.029, True, 1.685, 0.140688
2023/06/22 14:02:51.533, True, 1.326, 0.137636
2023/06/22 14:02:52.037, True, 1.659, 0.138781
2023/06/22 14:02:52.533, True, 1.684, 0.139467
2023/06/22 14:02:53.037, True, 1.326, 0.140154
2023/06/22 14:02:53.541, True, 1.658, 0.139544
2023/06/22 14:02:54.037, True, 1.350, 0.141299
2023/06/22 14:02:54.541, True, 1.657, 0.140002
2023/06/22 14:02:55.045, True, 1.657, 0.136492
2023/06/22 14:02:55.541, True, 1.685, 0.140459
2023/06/22 14:02:56.045, True, 1.659, 0.139925
2023/06/22 14:02:56.541, True, 1.684, 0.142367
2023/06/22 14:02:57.045, True, 1.326, 0.139849
2023/06/22 14:02:57.549, True, 1.658, 0.142519
2023/06/22 14:02:58.053, True, 1.658, 0.139620
2023/06/22 14:02:58.549, True, 1.685, 0.140917
2023/06/22 14:02:59.053, True, 1.658, 0.141299
2023/06/22 14:02:59.549, True, 1.348, 0.138247
2023/06/22 14:03:00.053, True, 1.327, 0.138933
2023/06/22 14:03:00.557, True, 1.659, 0.140688
2023/06/22 14:03:01.053, True, 1.684, 0.138933
2023/06/22 14:03:01.556, True, 1.657, 0.140383
2023/06/22 14:03:02.061, True, 1.658, 0.143359
2023/06/22 14:03:02.557, True, 1.685, 0.138399
2023/06/22 14:03:03.061, True, 1.658, 0.140002
2023/06/22 14:03:03.565, True, 1.326, 0.140459
2023/06/22 14:03:04.061, True, 1.685, 0.139849
2023/06/22 14:03:04.565, True, 1.658, 0.140230
2023/06/22 14:03:05.069, True, 1.661, 0.140917
2023/06/22 14:03:05.573, True, 1.324, 0.140841
2023/06/22 14:03:06.069, True, 1.348, 0.141222
2023/06/22 14:03:06.573, True, 1.658, 0.140841
2023/06/22 14:03:07.077, True, 1.658, 0.140688
2023/06/22 14:03:07.573, True, 1.685, 0.139315
2023/06/22 14:03:08.076, True, 1.658, 0.141604
2023/06/22 14:03:08.581, True, 1.658, 0.139467
2023/06/22 14:03:09.077, True, 1.685, 0.140612
2023/06/22 14:03:09.581, True, 1.660, 0.140078
2023/06/22 14:03:10.085, True, 1.325, 0.140307
2023/06/22 14:03:10.581, True, 1.685, 0.138933
2023/06/22 14:03:11.085, True, 1.658, 0.139086
2023/06/22 14:03:11.589, True, 1.327, 0.140154
2023/06/22 14:03:12.093, True, 1.658, 0.141222
2023/06/22 14:03:12.589, True, 1.685, 0.141451
2023/06/22 14:03:13.093, True, 1.660, 0.137942
2023/06/22 14:03:13.597, True, 1.656, 0.140764
2023/06/22 14:03:14.093, True, 1.688, 0.140612
2023/06/22 14:03:14.597, True, 1.656, 0.139391
2023/06/22 14:03:15.101, True, 1.327, 0.138399
2023/06/22 14:03:15.597, True, 1.683, 0.140841
2023/06/22 14:03:16.101, True, 1.659, 0.141070
2023/06/22 14:03:16.605, True, 1.657, 0.140536
2023/06/22 14:03:17.101, True, 1.348, 0.138628
2023/06/22 14:03:17.605, True, 1.658, 0.138170
2023/06/22 14:03:18.109, True, 1.658, 0.137713
2023/06/22 14:03:18.605, True, 1.685, 0.137789
2023/06/22 14:03:19.109, True, 1.326, 0.140002
2023/06/22 14:03:19.613, True, 1.658, 0.139849
2023/06/22 14:03:20.109, True, 1.685, 0.138247
2023/06/22 14:03:20.613, True, 1.658, 0.139925
2023/06/22 14:03:21.116, True, 1.658, 0.138705
2023/06/22 14:03:21.612, True, 1.348, 0.141604
2023/06/22 14:03:22.117, True, 1.658, 0.138094
2023/06/22 14:03:22.621, True, 1.658, 0.140154
2023/06/22 14:03:23.116, True, 1.685, 0.139162
2023/06/22 14:03:23.621, True, 1.658, 0.138552
2023/06/22 14:03:24.124, True, 1.658, 0.139849
2023/06/22 14:03:24.620, True, 1.348, 0.137407
2023/06/22 14:03:25.125, True, 1.658, 0.139773
2023/06/22 14:03:25.628, True, 1.658, 0.138399
2023/06/22 14:03:26.125, True, 1.685, 0.137865
2023/06/22 14:03:26.629, True, 1.326, 0.140536
2023/06/22 14:03:27.133, True, 1.658, 0.138781
2023/06/22 14:03:27.629, True, 1.348, 0.139773
2023/06/22 14:03:28.133, True, 1.659, 0.142138
2023/06/22 14:03:28.637, True, 1.658, 0.138781
2023/06/22 14:03:29.133, True, 1.684, 0.138094
2023/06/22 14:03:29.637, True, 1.661, 0.137560
2023/06/22 14:03:30.141, True, 1.655, 0.139467
2023/06/22 14:03:30.637, True, 1.685, 0.137865
2023/06/22 14:03:31.141, True, 1.327, 0.136797
2023/06/22 14:03:31.645, True, 1.657, 0.139925
2023/06/22 14:03:32.149, True, 1.659, 0.138933
2023/06/22 14:03:32.645, True, 1.348, 0.140536
2023/06/22 14:03:33.149, True, 1.658, 0.139010
2023/06/22 14:03:33.653, True, 1.324, 0.140459
2023/06/22 14:03:34.149, True, 1.684, 0.138170
2023/06/22 14:03:34.653, True, 1.660, 0.138933
2023/06/22 14:03:35.156, True, 1.658, 0.139849
2023/06/22 14:03:35.653, True, 1.346, 0.137484
2023/06/22 14:03:36.157, True, 1.658, 0.139162
2023/06/22 14:03:36.652, True, 1.687, 0.138857
2023/06/22 14:03:37.157, True, 1.655, 0.137942
2023/06/22 14:03:37.661, True, 1.658, 0.138628
2023/06/22 14:03:38.157, True, 1.685, 0.138857
2023/06/22 14:03:38.661, True, 1.328, 0.140383
2023/06/22 14:03:39.165, True, 1.657, 0.138705
2023/06/22 14:03:39.669, True, 1.659, 0.137484
2023/06/22 14:03:40.165, True, 1.683, 0.140002
2023/06/22 14:03:40.669, True, 1.326, 0.137942
2023/06/22 14:03:41.173, True, 1.661, 0.138705
2023/06/22 14:03:41.669, True, 1.682, 0.136110
2023/06/22 14:03:42.173, True, 1.660, 0.139773
2023/06/22 14:03:42.677, True, 1.325, 0.138323
2023/06/22 14:03:43.173, True, 1.685, 0.139315
2023/06/22 14:03:43.677, True, 1.658, 0.140154
2023/06/22 14:03:44.181, True, 1.661, 0.136873
2023/06/22 14:03:44.677, True, 1.346, 0.140002
2023/06/22 14:03:45.181, True, 1.658, 0.137789
2023/06/22 14:03:45.685, True, 1.658, 0.138552
2023/06/22 14:03:46.181, True, 1.348, 0.136645
2023/06/22 14:03:46.685, True, 1.658, 0.136645
2023/06/22 14:03:47.181, True, 1.685, 0.137179
2023/06/22 14:03:47.685, True, 1.658, 0.138781
2023/06/22 14:03:48.189, True, 1.326, 0.139010
2023/06/22 14:03:48.685, True, 1.685, 0.139086
2023/06/22 14:03:49.189, True, 1.658, 0.138170
2023/06/22 14:03:49.693, True, 1.326, 0.138781
2023/06/22 14:03:50.189, True, 1.685, 0.138170
2023/06/22 14:03:50.693, True, 1.658, 0.136873
2023/06/22 14:03:51.197, True, 1.326, 0.138476
2023/06/22 14:03:51.693, True, 1.685, 0.135424
2023/06/22 14:03:52.197, True, 1.658, 0.137407
2023/06/22 14:03:52.693, True, 1.348, 0.137636
2023/06/22 14:03:53.197, True, 1.659, 0.138781
2023/06/22 14:03:53.701, True, 1.657, 0.138781
2023/06/22 14:03:54.197, True, 1.685, 0.138323
2023/06/22 14:03:54.701, True, 1.327, 0.140307
2023/06/22 14:03:55.205, True, 1.657, 0.138323
2023/06/22 14:03:55.701, True, 1.685, 0.139925
2023/06/22 14:03:56.205, True, 1.326, 0.139925
2023/06/22 14:03:56.709, True, 1.658, 0.139086
2023/06/22 14:03:57.205, True, 1.348, 0.137713
2023/06/22 14:03:57.709, True, 1.658, 0.138323
2023/06/22 14:03:58.213, True, 1.658, 0.138857
2023/06/22 14:03:58.709, True, 1.685, 0.138857
2023/06/22 14:03:59.213, True, 1.326, 0.137789
2023/06/22 14:03:59.709, True, 1.685, 0.136950
2023/06/22 14:04:00.213, True, 1.658, 0.140154
2023/06/22 14:04:00.717, True, 1.660, 0.137331
2023/06/22 14:04:01.213, True, 1.347, 0.137331
2023/06/22 14:04:01.717, True, 1.660, 0.134737
2023/06/22 14:04:02.221, True, 1.656, 0.138628
2023/06/22 14:04:02.717, True, 1.684, 0.137636
2023/06/22 14:04:03.221, True, 1.658, 0.140154
2023/06/22 14:04:03.717, True, 1.685, 0.138476
2023/06/22 14:04:04.221, True, 1.326, 0.137102
2023/06/22 14:04:04.725, True, 1.658, 0.137560
2023/06/22 14:04:05.221, True, 1.349, 0.136110
2023/06/22 14:04:05.725, True, 1.326, 0.139162
2023/06/22 14:04:06.229, True, 1.658, 0.138476
2023/06/22 14:04:06.725, True, 1.348, 0.136645
2023/06/22 14:04:07.228, True, 1.658, 0.139162
2023/06/22 14:04:07.725, True, 1.685, 0.137026
2023/06/22 14:04:08.229, True, 1.658, 0.138247
2023/06/22 14:04:08.733, True, 1.658, 0.138476
2023/06/22 14:04:09.236, True, 1.326, 0.137026
2023/06/22 14:04:09.733, True, 1.685, 0.138018
2023/06/22 14:04:10.237, True, 1.327, 0.138476
2023/06/22 14:04:10.733, True, 1.684, 0.138857
2023/06/22 14:04:11.237, True, 1.658, 0.137713
2023/06/22 14:04:11.741, True, 1.658, 0.136339
2023/06/22 14:04:12.245, True, 1.658, 0.137331
2023/06/22 14:04:12.741, True, 1.685, 0.136721